"Sample Date","Sample Time","Sensor Name","Sample Value","Units","Flow Rate","Sample Interval","Sample Volume","Laser Status","Number Channels","Micron Size 0","Counts/Channel 0","Micron Size 1","Counts/Channel 1","Micron Size 2","Counts/Channel 2","Micron Size 3","Counts/Channel 3","Micron Size 4","Counts/Channel 4","Micron Size 5","Counts/Channel 5","Micron Size 6","Counts/Channel 6","Micron Size 7","Counts/Channel 7","Micron Size 8","Counts/Channel 8","Micron Size 9","Counts/Channel 9","Micron Size 10","Counts/Channel 10","Micron Size 11","Counts/Channel 11","Micron Size 12","Counts/Channel 12","Micron Size 13","Counts/Channel 13","Micron Size 14","Counts/Channel 14","Micron Size 15","Counts/Channel 15","Micron Size 16","Counts/Channel 16","Micron Size 17","Counts/Channel 17","Micron Size 18","Counts/Channel 18","Micron Size 19","Counts/Channel 19","Micron Size 20","Counts/Channel 20","Micron Size 21","Counts/Channel 21","Micron Size 22","Counts/Channel 22","Micron Size 23","Counts/Channel 23","Micron Size 24","Counts/Channel 24","Micron Size 25","Counts/Channel 25","Micron Size 26","Counts/Channel 26","Micron Size 27","Counts/Channel 27","Micron Size 28","Counts/Channel 28","Micron Size 29","Counts/Channel 29","Micron Size 30","Counts/Channel 30","Micron Size 31","Counts/Channel 31"
"07/04/06","14:00:01","AMMA06",55456.000,"cc",28334.135,6.00,2833.414,1,6,0.100,34608.000,0.200,17924.000,0.300,1987.000,0.500,560.000,1.000,377.000,5.000,0
"07/04/06","14:00:07","AMMA06",55357.000,"cc",28249.949,6.00,2824.995,1,6,0.100,34742.000,0.200,17845.000,0.300,1896.000,0.500,514.000,1.000,360.000,5.000,0
"07/04/06","14:00:13","AMMA06",55093.000,"cc",28286.865,6.00,2828.687,1,6,0.100,34542.000,0.200,17820.000,0.300,1837.000,0.500,525.000,1.000,369.000,5.000,0
"07/04/06","14:00:19","AMMA06",55885.000,"cc",28318.227,6.00,2831.823,1,6,0.100,34943.000,0.200,18061.000,0.300,1944.000,0.500,581.000,1.000,356.000,5.000,0
"07/04/06","14:00:25","AMMA06",55927.000,"cc",28333.531,6.00,2833.353,1,6,0.100,35121.000,0.200,17974.000,0.300,1970.000,0.500,534.000,1.000,328.000,5.000,0
"07/04/06","14:00:31","AMMA06",55676.000,"cc",28300.576,6.00,2830.058,1,6,0.100,34977.000,0.200,17932.000,0.300,1884.000,0.500,561.000,1.000,322.000,5.000,0
"07/04/06","14:00:37","AMMA06",55402.000,"cc",28316.127,6.00,2831.613,1,6,0.100,34905.000,0.200,17686.000,0.300,1941.000,0.500,529.000,1.000,341.000,5.000,0
"07/04/06","14:00:43","AMMA06",55693.000,"cc",28344.789,6.00,2834.479,1,6,0.100,35092.000,0.200,17840.000,0.300,1903.000,0.500,521.000,1.000,337.000,5.000,0
"07/04/06","14:00:49","AMMA06",55439.000,"cc",28303.906,6.00,2830.391,1,6,0.100,34923.000,0.200,17817.000,0.300,1811.000,0.500,556.000,1.000,331.000,5.000,1.000
"07/04/06","14:00:55","AMMA06",55284.000,"cc",28337.188,6.00,2833.719,1,6,0.100,34808.000,0.200,17648.000,0.300,1967.000,0.500,475.000,1.000,386.000,5.000,0
"07/04/06","14:01:01","AMMA06",55501.000,"cc",28349.537,6.00,2834.954,1,6,0.100,35274.000,0.200,17524.000,0.300,1810.000,0.500,533.000,1.000,360.000,5.000,0
"07/04/06","14:01:07","AMMA06",55297.000,"cc",28328.414,6.00,2832.842,1,6,0.100,35017.000,0.200,17553.000,0.300,1851.000,0.500,544.000,1.000,332.000,5.000,0
"07/04/06","14:01:13","AMMA06",55114.000,"cc",28269.014,6.00,2826.902,1,6,0.100,34940.000,0.200,17554.000,0.300,1768.000,0.500,526.000,1.000,324.000,5.000,2.000
"07/04/06","14:01:19","AMMA06",54845.000,"cc",28270.154,6.00,2827.016,1,6,0.100,34837.000,0.200,17329.000,0.300,1833.000,0.500,530.000,1.000,316.000,5.000,0
"07/04/06","14:01:25","AMMA06",54986.000,"cc",28367.754,6.00,2836.776,1,6,0.100,34954.000,0.200,17354.000,0.300,1857.000,0.500,482.000,1.000,339.000,5.000,0
"07/04/06","14:01:31","AMMA06",55577.000,"cc",28290.565,6.00,2829.057,1,6,0.100,35332.000,0.200,17585.000,0.300,1792.000,0.500,525.000,1.000,343.000,5.000,0
"07/04/06","14:01:37","AMMA06",54761.000,"cc",28350.516,6.00,2835.052,1,6,0.100,34915.000,0.200,17203.000,0.300,1793.000,0.500,505.000,1.000,345.000,5.000,0
"07/04/06","14:01:43","AMMA06",54623.000,"cc",28280.449,6.00,2828.045,1,6,0.100,34745.000,0.200,17249.000,0.300,1808.000,0.500,510.000,1.000,310.000,5.000,1.000
"07/04/06","14:01:49","AMMA06",54524.000,"cc",28323.111,6.00,2832.311,1,6,0.100,34828.000,0.200,16981.000,0.300,1845.000,0.500,522.000,1.000,348.000,5.000,0
"07/04/06","14:01:55","AMMA06",54490.000,"cc",28327.754,6.00,2832.776,1,6,0.100,34828.000,0.200,17098.000,0.300,1721.000,0.500,506.000,1.000,337.000,5.000,0
"07/04/06","14:02:01","AMMA06",54561.000,"cc",28305.291,6.00,2830.529,1,6,0.100,34797.000,0.200,17067.000,0.300,1817.000,0.500,535.000,1.000,344.000,5.000,1.000
"07/04/06","14:02:07","AMMA06",55149.000,"cc",28266.336,6.00,2826.634,1,6,0.100,35092.000,0.200,17283.000,0.300,1899.000,0.500,538.000,1.000,337.000,5.000,0
"07/04/06","14:02:13","AMMA06",54869.000,"cc",28371.951,6.00,2837.195,1,6,0.100,34634.000,0.200,17545.000,0.300,1823.000,0.500,543.000,1.000,324.000,5.000,0
"07/04/06","14:02:19","AMMA06",54494.000,"cc",28319.590,6.00,2831.959,1,6,0.100,34753.000,0.200,17109.000,0.300,1763.000,0.500,536.000,1.000,333.000,5.000,0
"07/04/06","14:02:25","AMMA06",54741.000,"cc",28294.838,6.00,2829.484,1,6,0.100,34738.000,0.200,17296.000,0.300,1826.000,0.500,518.000,1.000,362.000,5.000,1.000
"07/04/06","14:02:31","AMMA06",54731.000,"cc",28271.072,6.00,2827.107,1,6,0.100,34761.000,0.200,17292.000,0.300,1815.000,0.500,524.000,1.000,339.000,5.000,0
"07/04/06","14:02:37","AMMA06",54513.000,"cc",28336.664,6.00,2833.667,1,6,0.100,34724.000,0.200,17179.000,0.300,1736.000,0.500,539.000,1.000,335.000,5.000,0
"07/04/06","14:02:43","AMMA06",54637.000,"cc",28346.748,6.00,2834.675,1,6,0.100,34608.000,0.200,17294.000,0.300,1846.000,0.500,548.000,1.000,341.000,5.000,0
"07/04/06","14:02:49","AMMA06",54732.000,"cc",28338.729,6.00,2833.873,1,6,0.100,34704.000,0.200,17348.000,0.300,1802.000,0.500,541.000,1.000,336.000,5.000,1.000
"07/04/06","14:02:55","AMMA06",54790.000,"cc",28331.410,6.00,2833.141,1,6,0.100,34751.000,0.200,17414.000,0.300,1795.000,0.500,530.000,1.000,300.000,5.000,0
"07/04/06","14:03:01","AMMA06",54764.000,"cc",28344.615,6.00,2834.462,1,6,0.100,34803.000,0.200,17344.000,0.300,1776.000,0.500,490.000,1.000,351.000,5.000,0
"07/04/06","14:03:07","AMMA06",54379.000,"cc",28267.635,6.00,2826.764,1,6,0.100,34317.000,0.200,17369.000,0.300,1786.000,0.500,547.000,1.000,360.000,5.000,0
"07/04/06","14:03:13","AMMA06",54260.000,"cc",28340.981,6.00,2834.098,1,6,0.100,34290.000,0.200,17376.000,0.300,1788.000,0.500,497.000,1.000,309.000,5.000,0
"07/04/06","14:03:19","AMMA06",54358.000,"cc",28318.961,6.00,2831.896,1,6,0.100,34012.000,0.200,17642.000,0.300,1854.000,0.500,528.000,1.000,322.000,5.000,0
"07/04/06","14:03:25","AMMA06",54294.000,"cc",28277.557,6.00,2827.756,1,6,0.100,34129.000,0.200,17384.000,0.300,1902.000,0.500,551.000,1.000,328.000,5.000,0
"07/04/06","14:03:31","AMMA06",53981.000,"cc",28289.971,6.00,2828.997,1,6,0.100,33896.000,0.200,17462.000,0.300,1778.000,0.500,503.000,1.000,342.000,5.000,0
"07/04/06","14:03:37","AMMA06",54682.000,"cc",28317.742,6.00,2831.774,1,6,0.100,34254.000,0.200,17781.000,0.300,1824.000,0.500,490.000,1.000,332.000,5.000,1.000
"07/04/06","14:03:43","AMMA06",54696.000,"cc",28310.234,6.00,2831.024,1,6,0.100,34116.000,0.200,17763.000,0.300,1932.000,0.500,568.000,1.000,317.000,5.000,0
"07/04/06","14:03:49","AMMA06",54608.000,"cc",28381.207,6.00,2838.121,1,6,0.100,34293.000,0.200,17567.000,0.300,1856.000,0.500,565.000,1.000,327.000,5.000,0
"07/04/06","14:03:55","AMMA06",54500.000,"cc",28331.123,6.00,2833.113,1,6,0.100,33875.000,0.200,17874.000,0.300,1924.000,0.500,504.000,1.000,322.000,5.000,1.000
"07/04/06","14:04:01","AMMA06",54496.000,"cc",28323.502,6.00,2832.350,1,6,0.100,33807.000,0.200,17956.000,0.300,1833.000,0.500,516.000,1.000,383.000,5.000,1.000
"07/04/06","14:04:07","AMMA06",54257.000,"cc",28326.910,6.00,2832.691,1,6,0.100,33767.000,0.200,17748.000,0.300,1916.000,0.500,502.000,1.000,324.000,5.000,0
"07/04/06","14:04:13","AMMA06",54728.000,"cc",28309.385,6.00,2830.939,1,6,0.100,33903.000,0.200,18090.000,0.300,1893.000,0.500,493.000,1.000,349.000,5.000,0
"07/04/06","14:04:19","AMMA06",54503.000,"cc",28318.467,6.00,2831.847,1,6,0.100,33993.000,0.200,17718.000,0.300,1927.000,0.500,509.000,1.000,356.000,5.000,0
"07/04/06","14:04:25","AMMA06",54333.000,"cc",28313.932,6.00,2831.393,1,6,0.100,33701.000,0.200,17814.000,0.300,1902.000,0.500,525.000,1.000,391.000,5.000,0
"07/04/06","14:04:31","AMMA06",53935.000,"cc",28270.342,6.00,2827.034,1,6,0.100,33228.000,0.200,17946.000,0.300,1951.000,0.500,499.000,1.000,311.000,5.000,0
"07/04/06","14:04:37","AMMA06",54413.000,"cc",28244.654,6.00,2824.466,1,6,0.100,33582.000,0.200,17973.000,0.300,1920.000,0.500,572.000,1.000,366.000,5.000,0
"07/04/06","14:04:43","AMMA06",54166.000,"cc",28374.258,6.00,2837.426,1,6,0.100,33599.000,0.200,17747.000,0.300,1916.000,0.500,538.000,1.000,366.000,5.000,0
"07/04/06","14:04:49","AMMA06",54356.000,"cc",28313.438,6.00,2831.344,1,6,0.100,33668.000,0.200,17817.000,0.300,1982.000,0.500,528.000,1.000,361.000,5.000,0
"07/04/06","14:04:55","AMMA06",54130.000,"cc",28295.553,6.00,2829.555,1,6,0.100,33392.000,0.200,18012.000,0.300,1840.000,0.500,528.000,1.000,358.000,5.000,0
"07/04/06","14:05:01","AMMA06",54171.000,"cc",28248.150,6.00,2824.815,1,6,0.100,33331.000,0.200,18150.000,0.300,1853.000,0.500,488.000,1.000,349.000,5.000,0
"07/04/06","14:05:07","AMMA06",54556.000,"cc",28361.732,6.00,2836.173,1,6,0.100,33606.000,0.200,18199.000,0.300,1872.000,0.500,527.000,1.000,352.000,5.000,0
"07/04/06","14:05:13","AMMA06",54126.000,"cc",28345.885,6.00,2834.589,1,6,0.100,33388.000,0.200,17995.000,0.300,1897.000,0.500,514.000,1.000,332.000,5.000,0
"07/04/06","14:05:19","AMMA06",54163.000,"cc",28304.227,6.00,2830.423,1,6,0.100,33465.000,0.200,17957.000,0.300,1860.000,0.500,538.000,1.000,343.000,5.000,0
"07/04/06","14:05:25","AMMA06",54349.000,"cc",28315.303,6.00,2831.531,1,6,0.100,33677.000,0.200,17867.000,0.300,1975.000,0.500,470.000,1.000,360.000,5.000,0
"07/04/06","14:05:31","AMMA06",53852.000,"cc",28327.748,6.00,2832.775,1,6,0.100,33240.000,0.200,17873.000,0.300,1908.000,0.500,522.000,1.000,308.000,5.000,1.000
"07/04/06","14:05:37","AMMA06",53861.000,"cc",28274.434,6.00,2827.444,1,6,0.100,33357.000,0.200,17860.000,0.300,1802.000,0.500,523.000,1.000,319.000,5.000,0
"07/04/06","14:05:43","AMMA06",54098.000,"cc",28327.205,6.00,2832.721,1,6,0.100,33530.000,0.200,17818.000,0.300,1921.000,0.500,507.000,1.000,322.000,5.000,0
"07/04/06","14:05:49","AMMA06",54343.000,"cc",28261.820,6.00,2826.182,1,6,0.100,33565.000,0.200,17923.000,0.300,1946.000,0.500,540.000,1.000,369.000,5.000,0
"07/04/06","14:05:55","AMMA06",54165.000,"cc",28338.266,6.00,2833.827,1,6,0.100,33559.000,0.200,17811.000,0.300,1918.000,0.500,517.000,1.000,360.000,5.000,0
"07/04/06","14:06:01","AMMA06",53817.000,"cc",28361.416,6.00,2836.142,1,6,0.100,33180.000,0.200,17798.000,0.300,1924.000,0.500,569.000,1.000,346.000,5.000,0
"07/04/06","14:06:07","AMMA06",54251.000,"cc",28334.783,6.00,2833.479,1,6,0.100,33499.000,0.200,17948.000,0.300,1953.000,0.500,531.000,1.000,319.000,5.000,1.000
"07/04/06","14:06:13","AMMA06",53815.000,"cc",28330.797,6.00,2833.080,1,6,0.100,33089.000,0.200,17900.000,0.300,1986.000,0.500,512.000,1.000,328.000,5.000,0
"07/04/06","14:06:19","AMMA06",54491.000,"cc",28298.856,6.00,2829.886,1,6,0.100,33836.000,0.200,17812.000,0.300,1993.000,0.500,517.000,1.000,333.000,5.000,0
"07/04/06","14:06:25","AMMA06",54301.000,"cc",28301.426,6.00,2830.143,1,6,0.100,33600.000,0.200,17936.000,0.300,1910.000,0.500,535.000,1.000,320.000,5.000,0
"07/04/06","14:06:31","AMMA06",53893.000,"cc",28320.779,6.00,2832.078,1,6,0.100,33396.000,0.200,17686.000,0.300,1941.000,0.500,525.000,1.000,344.000,5.000,1.000
"07/04/06","14:06:37","AMMA06",53926.000,"cc",28290.934,6.00,2829.094,1,6,0.100,33577.000,0.200,17639.000,0.300,1858.000,0.500,468.000,1.000,384.000,5.000,0
"07/04/06","14:06:43","AMMA06",54347.000,"cc",28346.611,6.00,2834.661,1,6,0.100,33639.000,0.200,17923.000,0.300,1972.000,0.500,475.000,1.000,338.000,5.000,0
"07/04/06","14:06:49","AMMA06",54220.000,"cc",28322.416,6.00,2832.242,1,6,0.100,33407.000,0.200,18002.000,0.300,1952.000,0.500,538.000,1.000,321.000,5.000,0
"07/04/06","14:06:55","AMMA06",54239.000,"cc",28314.869,6.00,2831.487,1,6,0.100,33618.000,0.200,17848.000,0.300,1907.000,0.500,513.000,1.000,353.000,5.000,0
"07/04/06","14:07:01","AMMA06",53770.000,"cc",28325.840,6.00,2832.584,1,6,0.100,33164.000,0.200,17829.000,0.300,1892.000,0.500,546.000,1.000,339.000,5.000,0
"07/04/06","14:07:07","AMMA06",54082.000,"cc",28284.029,6.00,2828.403,1,6,0.100,33598.000,0.200,17731.000,0.300,1872.000,0.500,528.000,1.000,353.000,5.000,0
"07/04/06","14:07:13","AMMA06",54068.000,"cc",28361.518,6.00,2836.152,1,6,0.100,33497.000,0.200,17767.000,0.300,1914.000,0.500,523.000,1.000,365.000,5.000,2.000
"07/04/06","14:07:19","AMMA06",53643.000,"cc",28306.781,6.00,2830.678,1,6,0.100,33089.000,0.200,17784.000,0.300,1883.000,0.500,549.000,1.000,338.000,5.000,0
"07/04/06","14:07:25","AMMA06",53370.000,"cc",28295.897,6.00,2829.590,1,6,0.100,33064.000,0.200,17590.000,0.300,1875.000,0.500,487.000,1.000,354.000,5.000,0
"07/04/06","14:07:31","AMMA06",53694.000,"cc",28299.383,6.00,2829.939,1,6,0.100,33189.000,0.200,17684.000,0.300,1955.000,0.500,526.000,1.000,340.000,5.000,0
"07/04/06","14:07:37","AMMA06",53750.000,"cc",28381.561,6.00,2838.156,1,6,0.100,33491.000,0.200,17568.000,0.300,1891.000,0.500,492.000,1.000,308.000,5.000,0
"07/04/06","14:07:43","AMMA06",53377.000,"cc",28338.721,6.00,2833.872,1,6,0.100,33142.000,0.200,17430.000,0.300,1912.000,0.500,555.000,1.000,338.000,5.000,0
"07/04/06","14:07:49","AMMA06",53228.000,"cc",28303.238,6.00,2830.324,1,6,0.100,32723.000,0.200,17773.000,0.300,1881.000,0.500,548.000,1.000,303.000,5.000,0
"07/04/06","14:07:55","AMMA06",53163.000,"cc",28298.289,6.00,2829.829,1,6,0.100,32793.000,0.200,17582.000,0.300,1896.000,0.500,553.000,1.000,339.000,5.000,0
"07/04/06","14:08:01","AMMA06",53684.000,"cc",28302.822,6.00,2830.283,1,6,0.100,33440.000,0.200,17564.000,0.300,1837.000,0.500,519.000,1.000,323.000,5.000,1.000
"07/04/06","14:08:07","AMMA06",52974.000,"cc",28262.670,6.00,2826.267,1,6,0.100,33042.000,0.200,17321.000,0.300,1805.000,0.500,466.000,1.000,340.000,5.000,0
"07/04/06","14:08:13","AMMA06",53505.000,"cc",28360.277,6.00,2836.028,1,6,0.100,33510.000,0.200,17321.000,0.300,1803.000,0.500,525.000,1.000,345.000,5.000,1.000
"07/04/06","14:08:19","AMMA06",53401.000,"cc",28281.148,6.00,2828.115,1,6,0.100,33198.000,0.200,17490.000,0.300,1880.000,0.500,494.000,1.000,339.000,5.000,0
"07/04/06","14:08:25","AMMA06",52839.000,"cc",28313.404,6.00,2831.341,1,6,0.100,33039.000,0.200,17145.000,0.300,1797.000,0.500,513.000,1.000,344.000,5.000,1.000
"07/04/06","14:08:31","AMMA06",53371.000,"cc",28316.059,6.00,2831.606,1,6,0.100,33327.000,0.200,17340.000,0.300,1863.000,0.500,505.000,1.000,336.000,5.000,0
"07/04/06","14:08:37","AMMA06",53783.000,"cc",28318.660,6.00,2831.866,1,6,0.100,33505.000,0.200,17526.000,0.300,1891.000,0.500,533.000,1.000,327.000,5.000,1.000
"07/04/06","14:08:43","AMMA06",53442.000,"cc",28330.824,6.00,2833.083,1,6,0.100,33443.000,0.200,17296.000,0.300,1850.000,0.500,515.000,1.000,338.000,5.000,0
"07/04/06","14:08:49","AMMA06",52977.000,"cc",28356.412,6.00,2835.641,1,6,0.100,33243.000,0.200,17029.000,0.300,1799.000,0.500,536.000,1.000,370.000,5.000,0
"07/04/06","14:08:55","AMMA06",53420.000,"cc",28322.869,6.00,2832.287,1,6,0.100,33795.000,0.200,16943.000,0.300,1815.000,0.500,560.000,1.000,307.000,5.000,0
"07/04/06","14:09:01","AMMA06",52833.000,"cc",28320.426,6.00,2832.043,1,6,0.100,33333.000,0.200,16853.000,0.300,1797.000,0.500,507.000,1.000,342.000,5.000,1.000
"07/04/06","14:09:07","AMMA06",53103.000,"cc",28333.250,6.00,2833.325,1,6,0.100,33428.000,0.200,16965.000,0.300,1849.000,0.500,533.000,1.000,328.000,5.000,0
"07/04/06","14:09:13","AMMA06",53119.000,"cc",28329.438,6.00,2832.944,1,6,0.100,33512.000,0.200,16933.000,0.300,1828.000,0.500,504.000,1.000,341.000,5.000,1.000
"07/04/06","14:09:19","AMMA06",52682.000,"cc",28320.135,6.00,2832.014,1,6,0.100,33194.000,0.200,16871.000,0.300,1788.000,0.500,508.000,1.000,321.000,5.000,0
"07/04/06","14:09:25","AMMA06",51914.000,"cc",28328.404,6.00,2832.841,1,6,0.100,32789.000,0.200,16590.000,0.300,1756.000,0.500,499.000,1.000,280.000,5.000,0
"07/04/06","14:09:31","AMMA06",52624.000,"cc",28245.869,6.00,2824.587,1,6,0.100,33361.000,0.200,16608.000,0.300,1789.000,0.500,551.000,1.000,315.000,5.000,0
"07/04/06","14:09:37","AMMA06",52927.000,"cc",28329.106,6.00,2832.911,1,6,0.100,33515.000,0.200,16741.000,0.300,1817.000,0.500,535.000,1.000,319.000,5.000,0
"07/04/06","14:09:43","AMMA06",52550.000,"cc",28362.293,6.00,2836.230,1,6,0.100,33483.000,0.200,16455.000,0.300,1795.000,0.500,503.000,1.000,314.000,5.000,0
"07/04/06","14:09:49","AMMA06",53239.000,"cc",28298.106,6.00,2829.811,1,6,0.100,33729.000,0.200,16890.000,0.300,1782.000,0.500,510.000,1.000,328.000,5.000,0
"07/04/06","14:09:55","AMMA06",52633.000,"cc",28291.500,6.00,2829.150,1,6,0.100,33669.000,0.200,16405.000,0.300,1690.000,0.500,516.000,1.000,353.000,5.000,0
"07/04/06","14:10:01","AMMA06",52624.000,"cc",28305.875,6.00,2830.588,1,6,0.100,33483.000,0.200,16559.000,0.300,1775.000,0.500,502.000,1.000,304.000,5.000,1.000
"07/04/06","14:10:07","AMMA06",52432.000,"cc",28349.205,6.00,2834.921,1,6,0.100,33550.000,0.200,16263.000,0.300,1743.000,0.500,572.000,1.000,304.000,5.000,0
"07/04/06","14:10:13","AMMA06",51977.000,"cc",28339.703,6.00,2833.971,1,6,0.100,32954.000,0.200,16530.000,0.300,1702.000,0.500,476.000,1.000,315.000,5.000,0
"07/04/06","14:10:19","AMMA06",52015.000,"cc",28364.596,6.00,2836.460,1,6,0.100,33027.000,0.200,16409.000,0.300,1789.000,0.500,491.000,1.000,299.000,5.000,0
"07/04/06","14:10:25","AMMA06",52424.000,"cc",28284.617,6.00,2828.462,1,6,0.100,33398.000,0.200,16496.000,0.300,1736.000,0.500,482.000,1.000,312.000,5.000,0
"07/04/06","14:10:31","AMMA06",52276.000,"cc",28295.514,6.00,2829.552,1,6,0.100,33308.000,0.200,16494.000,0.300,1658.000,0.500,519.000,1.000,297.000,5.000,0
"07/04/06","14:10:37","AMMA06",52045.000,"cc",28301.090,6.00,2830.109,1,6,0.100,33307.000,0.200,16176.000,0.300,1741.000,0.500,481.000,1.000,339.000,5.000,1.000
"07/04/06","14:10:43","AMMA06",51781.000,"cc",28340.113,6.00,2834.012,1,6,0.100,33080.000,0.200,16151.000,0.300,1761.000,0.500,479.000,1.000,309.000,5.000,1.000
"07/04/06","14:10:49","AMMA06",51952.000,"cc",28296.879,6.00,2829.688,1,6,0.100,33187.000,0.200,16196.000,0.300,1763.000,0.500,494.000,1.000,312.000,5.000,0
"07/04/06","14:10:55","AMMA06",52179.000,"cc",28343.588,6.00,2834.359,1,6,0.100,33232.000,0.200,16275.000,0.300,1805.000,0.500,527.000,1.000,340.000,5.000,0
"07/04/06","14:11:01","AMMA06",52453.000,"cc",28362.236,6.00,2836.224,1,6,0.100,33669.000,0.200,16210.000,0.300,1758.000,0.500,513.000,1.000,303.000,5.000,0
"07/04/06","14:11:07","AMMA06",51618.000,"cc",28267.168,6.00,2826.717,1,6,0.100,32955.000,0.200,16157.000,0.300,1704.000,0.500,486.000,1.000,316.000,5.000,0
"07/04/06","14:11:13","AMMA06",51636.000,"cc",28278.852,6.00,2827.885,1,6,0.100,33169.000,0.200,15935.000,0.300,1702.000,0.500,523.000,1.000,305.000,5.000,2.000
"07/04/06","14:11:19","AMMA06",51956.000,"cc",28315.400,6.00,2831.540,1,6,0.100,33180.000,0.200,16271.000,0.300,1673.000,0.500,503.000,1.000,329.000,5.000,0
"07/04/06","14:11:25","AMMA06",51670.000,"cc",28341.461,6.00,2834.146,1,6,0.100,33147.000,0.200,15929.000,0.300,1728.000,0.500,530.000,1.000,336.000,5.000,0
"07/04/06","14:11:31","AMMA06",51598.000,"cc",28299.742,6.00,2829.974,1,6,0.100,33235.000,0.200,15892.000,0.300,1682.000,0.500,455.000,1.000,334.000,5.000,0
"07/04/06","14:11:37","AMMA06",51887.000,"cc",28311.609,6.00,2831.161,1,6,0.100,33202.000,0.200,16205.000,0.300,1663.000,0.500,513.000,1.000,304.000,5.000,0
"07/04/06","14:11:43","AMMA06",51855.000,"cc",28305.600,6.00,2830.560,1,6,0.100,33028.000,0.200,16225.000,0.300,1732.000,0.500,526.000,1.000,344.000,5.000,0
"07/04/06","14:11:49","AMMA06",52031.000,"cc",28303.816,6.00,2830.382,1,6,0.100,33112.000,0.200,16340.000,0.300,1717.000,0.500,536.000,1.000,325.000,5.000,1.000
"07/04/06","14:11:55","AMMA06",52074.000,"cc",28309.736,6.00,2830.974,1,6,0.100,33419.000,0.200,16103.000,0.300,1713.000,0.500,505.000,1.000,334.000,5.000,0
"07/04/06","14:12:01","AMMA06",51850.000,"cc",28314.102,6.00,2831.410,1,6,0.100,33138.000,0.200,16159.000,0.300,1743.000,0.500,515.000,1.000,295.000,5.000,0
"07/04/06","14:12:07","AMMA06",52067.000,"cc",28324.473,6.00,2832.448,1,6,0.100,33407.000,0.200,16124.000,0.300,1701.000,0.500,535.000,1.000,299.000,5.000,1.000
"07/04/06","14:12:13","AMMA06",52121.000,"cc",28343.461,6.00,2834.346,1,6,0.100,33376.000,0.200,16198.000,0.300,1704.000,0.500,518.000,1.000,325.000,5.000,0
"07/04/06","14:12:19","AMMA06",52145.000,"cc",28299.361,6.00,2829.936,1,6,0.100,33305.000,0.200,16257.000,0.300,1768.000,0.500,474.000,1.000,339.000,5.000,2.000
"07/04/06","14:12:25","AMMA06",52059.000,"cc",28314.000,6.00,2831.400,1,6,0.100,33119.000,0.200,16348.000,0.300,1753.000,0.500,507.000,1.000,332.000,5.000,0
"07/04/06","14:12:31","AMMA06",52003.000,"cc",28374.834,6.00,2837.484,1,6,0.100,33068.000,0.200,16424.000,0.300,1720.000,0.500,474.000,1.000,317.000,5.000,0
"07/04/06","14:12:37","AMMA06",52288.000,"cc",28311.852,6.00,2831.185,1,6,0.100,33378.000,0.200,16380.000,0.300,1722.000,0.500,471.000,1.000,337.000,5.000,0
"07/04/06","14:12:43","AMMA06",51920.000,"cc",28319.156,6.00,2831.916,1,6,0.100,32935.000,0.200,16379.000,0.300,1814.000,0.500,478.000,1.000,314.000,5.000,0
"07/04/06","14:12:49","AMMA06",51997.000,"cc",28328.178,6.00,2832.818,1,6,0.100,32881.000,0.200,16546.000,0.300,1810.000,0.500,469.000,1.000,291.000,5.000,0
"07/04/06","14:12:55","AMMA06",52274.000,"cc",28321.891,6.00,2832.189,1,6,0.100,33198.000,0.200,16480.000,0.300,1801.000,0.500,477.000,1.000,318.000,5.000,0
"07/04/06","14:13:01","AMMA06",51557.000,"cc",28258.711,6.00,2825.871,1,6,0.100,32538.000,0.200,16467.000,0.300,1740.000,0.500,479.000,1.000,332.000,5.000,1.000
"07/04/06","14:13:07","AMMA06",52052.000,"cc",28294.334,6.00,2829.434,1,6,0.100,32658.000,0.200,16805.000,0.300,1783.000,0.500,484.000,1.000,322.000,5.000,0
"07/04/06","14:13:13","AMMA06",51783.000,"cc",28301.152,6.00,2830.116,1,6,0.100,32683.000,0.200,16535.000,0.300,1735.000,0.500,492.000,1.000,338.000,5.000,0
"07/04/06","14:13:19","AMMA06",51863.000,"cc",28413.477,6.00,2841.348,1,6,0.100,32446.000,0.200,16788.000,0.300,1754.000,0.500,518.000,1.000,357.000,5.000,0
"07/04/06","14:13:25","AMMA06",52057.000,"cc",28293.041,6.00,2829.304,1,6,0.100,32609.000,0.200,16770.000,0.300,1819.000,0.500,510.000,1.000,349.000,5.000,0
"07/04/06","14:13:31","AMMA06",52013.000,"cc",28294.955,6.00,2829.496,1,6,0.100,32400.000,0.200,16975.000,0.300,1823.000,0.500,476.000,1.000,338.000,5.000,1.000
"07/04/06","14:13:37","AMMA06",52310.000,"cc",28300.648,6.00,2830.065,1,6,0.100,32557.000,0.200,17068.000,0.300,1847.000,0.500,509.000,1.000,329.000,5.000,0
"07/04/06","14:13:43","AMMA06",52526.000,"cc",28332.156,6.00,2833.216,1,6,0.100,33038.000,0.200,16846.000,0.300,1810.000,0.500,483.000,1.000,349.000,5.000,0
"07/04/06","14:13:49","AMMA06",52307.000,"cc",28340.065,6.00,2834.007,1,6,0.100,32550.000,0.200,17087.000,0.300,1816.000,0.500,500.000,1.000,354.000,5.000,0
"07/04/06","14:13:55","AMMA06",52167.000,"cc",28380.359,6.00,2838.036,1,6,0.100,32428.000,0.200,17093.000,0.300,1844.000,0.500,507.000,1.000,295.000,5.000,0
"07/04/06","14:14:01","AMMA06",52304.000,"cc",28289.082,6.00,2828.908,1,6,0.100,32479.000,0.200,17116.000,0.300,1860.000,0.500,518.000,1.000,331.000,5.000,0
"07/04/06","14:14:07","AMMA06",52811.000,"cc",28312.266,6.00,2831.227,1,6,0.100,32917.000,0.200,17146.000,0.300,1877.000,0.500,530.000,1.000,341.000,5.000,0